Weather History for Jerez de la Frontera, Spain

Change the Weather History Date:

Saturday, September 7, 2013

  Actual Average Record
Temperature  
Mean Temperature 74 °F -  
Max Temperature 83 °F 80 °F 100 °F (2000)
Min Temperature 66 °F 59 °F 55 °F (2002)
Cooling Degree Days 10    
Growing Degree Days 24 (Base 50)    
Moisture  
Dew Point 64 °F    
Average Humidity 71    
Maximum Humidity 94    
Minimum Humidity 44    
Precipitation  
Precipitation 0.00 in 0.04 in - ()
Sea Level Pressure  
Sea Level Pressure 29.98 in    
Wind  
Wind Speed 7 mph ()    
Max Wind Speed 15 mph    
Max Gust Speed -    
Visibility 6.5 miles    
Events      
Averages and records for this station are not official NWS values.
T = Trace of Precipitation, MM = Missing Value Source: Averaged Metar Reports

Daily Weather History Graph

Daily Weather History Graph

Search for Another Location

Airport:

Trip Planner

Search our weather history database for the weather conditions in past years. The results will help you decide how hot, cold, wet, or windy it might be!

Date:

Astronomy

Sep. 07, 2013 Rise Set
Actual Time 8:00 AM CEST 8:43 PM CEST
Civil Twilight 7:33 AM CEST 9:09 PM CEST
Nautical Twilight 7:02 AM CEST 9:40 PM CEST
Astronomical Twilight 6:31 AM CEST 10:12 PM CEST
Moon 9:55 AM CEST (9/7) 9:39 PM CEST (9/7)
Length of Visible Light 13h 35m
Length of Day
12h 43m
Waxing Crescent, 4% of the Moon is Illuminated
Sep 7
Waxing Crescent
Sep 12
First Quarter
Sep 19
Full
Sep 27
Last Quarter
Oct 5
New

Hourly Weather History & Observations

Time (CEST) Temp. Heat Index Dew Point Humidity Pressure Visibility Wind Dir Wind Speed Gust Speed Precip Events Conditions
2:00 AM 68 °F - 64 °F 83% 29.96 in 7 mi SSE 3.5 mph - -   Scattered Clouds
5:00 AM 68.0 °F - 66.2 °F 94% 29.92 in 6.2 mi Variable 2.3 mph - N/A   Scattered Clouds
5:30 AM 69.8 °F - 66.2 °F 88% 29.92 in 6.2 mi SSE 3.5 mph - N/A   Scattered Clouds
6:00 AM 69.8 °F - 66.2 °F 88% 29.92 in 6.2 mi SSE 5.8 mph - N/A   Scattered Clouds
6:30 AM 69.8 °F - 66.2 °F 88% 29.92 in 6.2 mi South 6.9 mph - N/A   Partly Cloudy
7:00 AM 68.0 °F - 66.2 °F 94% 29.92 in 6.2 mi South 5.8 mph - N/A   Scattered Clouds
7:30 AM 68.0 °F - 66.2 °F 94% 29.95 in 6.2 mi South 5.8 mph - N/A   Scattered Clouds
8:00 AM 67 °F - 64 °F 88% 29.96 in 6 mi South 3.5 mph - -   Partly Cloudy
8:00 AM 68.0 °F - 64.4 °F 88% 29.95 in 6.2 mi South 3.5 mph - N/A   Scattered Clouds
8:30 AM 68.0 °F - 64.4 °F 88% 29.95 in 6.2 mi Variable 2.3 mph - N/A   Scattered Clouds
9:00 AM 68.0 °F - 64.4 °F 88% 29.95 in 6.2 mi SSE 4.6 mph - N/A   Scattered Clouds
9:30 AM 71.6 °F - 64.4 °F 78% 29.95 in 6.2 mi South 6.9 mph - N/A   Scattered Clouds
10:00 AM 73.4 °F - 64.4 °F 73% 29.95 in 6.2 mi South 8.1 mph - N/A   Scattered Clouds
10:30 AM 73.4 °F - 64.4 °F 73% 29.98 in 6.2 mi South 11.5 mph - N/A   Mostly Cloudy
11:00 AM 75.2 °F - 64.4 °F 69% 29.98 in 6.2 mi SSW 13.8 mph - N/A   Mostly Cloudy
11:30 AM 71.6 °F - 66.2 °F 83% 30.01 in 6.2 mi WSW 10.4 mph - N/A   Mostly Cloudy
12:00 PM 73.4 °F - 66.2 °F 78% 30.01 in 6.2 mi WSW 6.9 mph - N/A   Mostly Cloudy
12:30 PM 75.2 °F - 64.4 °F 69% 30.01 in 6.2 mi SSW 11.5 mph - N/A   Scattered Clouds
1:00 PM 75.2 °F - 62.6 °F 65% 30.01 in 6.2 mi SSW 9.2 mph - N/A   Scattered Clouds
1:30 PM 77.0 °F - 60.8 °F 57% 30.01 in 6.2 mi SW 15.0 mph - N/A   Scattered Clouds
2:00 PM 80 °F - 62 °F 44% 30.02 in 12 mi SSW 13.8 mph - -   Partly Cloudy
2:00 PM 78.8 °F - 62.6 °F 57% 30.01 in 6.2 mi SSW 13.8 mph - N/A   Scattered Clouds
2:30 PM 78.8 °F - 62.6 °F 57% 30.01 in 6.2 mi SSW 11.5 mph - N/A   Scattered Clouds
3:00 PM 82.4 °F 83.4 °F 62.6 °F 51% 30.01 in 6.2 mi SW 12.7 mph - N/A   Scattered Clouds
3:30 PM 77.0 °F - 64.4 °F 65% 30.01 in 6.2 mi SW 12.7 mph - N/A   Scattered Clouds
4:00 PM 77.0 °F - 64.4 °F 65% 30.01 in 6.2 mi SW 11.5 mph - N/A   Scattered Clouds
4:30 PM 80.6 °F 81.8 °F 62.6 °F 54% 30.01 in 6.2 mi SW 15.0 mph - N/A   Scattered Clouds
5:00 PM 80.6 °F 81.8 °F 62.6 °F 54% 29.98 in 6.2 mi SW 13.8 mph - N/A   Partly Cloudy
5:30 PM 80.6 °F 81.8 °F 62.6 °F 54% 29.98 in 6.2 mi SW 13.8 mph - N/A   Partly Cloudy
6:00 PM 80.6 °F 81.1 °F 59.0 °F 48% 29.98 in 6.2 mi SW 13.8 mph - N/A   Partly Cloudy
6:30 PM 78.8 °F - 60.8 °F 54% 29.98 in 6.2 mi SW 12.7 mph - N/A   Partly Cloudy
7:00 PM 78.8 °F - 62.6 °F 57% 29.98 in 6.2 mi SW 10.4 mph - N/A   Partly Cloudy
7:30 PM 77.0 °F - 60.8 °F 57% 29.98 in 6.2 mi SSW 10.4 mph - N/A   Partly Cloudy
8:00 PM 77 °F - 61 °F 48% 29.99 in 12 mi SSW 10.4 mph - -   Scattered Clouds
8:00 PM 75.2 °F - 62.6 °F 65% 29.98 in 6.2 mi SW 9.2 mph - N/A   Partly Cloudy
8:30 PM 75.2 °F - 62.6 °F 65% 29.98 in - SSW 9.2 mph - N/A   Clear
9:00 PM 73.4 °F - 62.6 °F 69% 29.98 in - SW 8.1 mph - N/A   Clear
9:30 PM 71.6 °F - 64.4 °F 78% 30.01 in - SW 4.6 mph - N/A   Clear
10:00 PM 71.6 °F - 64.4 °F 78% 30.01 in 6.2 mi WSW 4.6 mph - N/A   Partly Cloudy
10:30 PM 71.6 °F - 64.4 °F 78% 30.04 in 6.2 mi West 3.5 mph - N/A   Partly Cloudy
11:00 PM 71.6 °F - 64.4 °F 78% 30.04 in 6.2 mi Variable 2.3 mph - N/A   Scattered Clouds